Location: Bletchingley
(51.2333°N, 0.1000°W)
Time: 01:03:46
(UTC+00:00)

CENTAUR R/B - Pass Details

Date: 18 September 2020
Orbit: 753 x 1435 km, 63.5° (Epoch: 26 October)

Event Time Altitude Azimuth Distance (km) Brightness Sun altitude
Rises 21:12:29 0° 315° (NW) 4,135 7.1 -27.2°
Reaches altitude 10° 21:15:13 10° 310° (NW) 3,253 6.2 -27.5°
Maximum altitude 21:22:53 50° 239° (WSW) 1,694 3.7 -28.4°
Enters shadow 21:25:43 38° 193° (SSW) 2,019 3.8 -28.7°
